Probability
45 32 26 16 0 0 0 0 0 0 0 0 0 0 0 0 0 0 0 0 3 3 19 29 35 35 42 42 35 35 35 35 39 42 42 39 45 35 32 35 39 35 42 42 48 42 39 42 29
35 26 19 0 0 0 0 0 0 0 0 0 0 0 0 0 3 0 0 3 3 3 10 19 39 45 39 35 32 32 32 35 35 39 35 35 35 29 29 29 32 35 29 26 29 29 29 26 19
35 26 10 0 0 0 0 0 0 0 0 0 0 0 0 0 0 0 3 3 3 0 10 26 42 39 42 35 32 32 32 32 32 32 35 39 32 29 29 29 35 35 29 26 23 26 16 26 23
10 6 0 0 0 0 0 0 0 0 0 0 0 3 3 0 0 3 3 3 0 3 16 23 32 39 35 35 32 35 32 29 29 29 26 29 26 26 32 29 29 26 13 19 16 16 16 13 13
6 0 0 0 0 0 0 0 0 0 0 0 0 3 3 0 0 3 3 3 3 3 16 23 29 39 32 32 26 26 19 26 29 29 29 26 26 23 26 26 19 16 16 13 10 10 13 10 13
0 0 0 0 0 0 0 0 0 0 0 0 0 0 0 0 0 3 3 3 3 3 13 19 35 35 29 26 29 23 19 23 23 23 26 26 26 26 19 16 13 16 16 10 10 13 13 10 13
0 0 0 0 0 0 0 0 0 0 0 0 0 0 0 0 0 3 3 6 6 6 6 13 13 19 26 26 19 26 23 23 23 19 23 23 26 26 23 19 16 16 16 10 10 13 6 6 10
0 0 0 0 0 0 0 0 0 0 0 0 0 0 0 0 0 3 3 6 6 6 10 10 10 13 13 13 26 26 19 26 23 23 23 26 23 19 23 19 13 10 10 10 6 6 6 13 10
0 0 0 0 0 0 0 0 0 0 0 0 0 0 0 0 0 3 3 0 3 6 6 6 10 10 10 10 16 19 23 23 19 19 23 19 3 6 13 19 19 10 10 6 6 6 6 3 6
3 0 0 0 0 0 0 0 0 0 0 0 0 0 0 0 3 3 3 6 6 3 3 3 3 3 6 10 6 3 3 3 3 3 3 3 3 3 6 16 13 13 10 6 6 6 6 3 3
0 0 0 0 0 0 0 0 0 0 0 0 0 0 0 0 3 3 3 6 3 3 3 3 0 3 3 3 3 3 3 3 3 3 3 3 3 3 3 3 10 10 6 6 6 3 3 3 3
0 0 0 0 0 0 0 0 0 0 0 0 0 0 0 0 3 3 3 6 3 0 0 3 3 0 3 3 3 3 3 3 3 3 3 3 3 3 3 3 3 3 3 3 3 3 3 3 0
0 0 0 0 0 0 0 0 0 0 0 0 0 0 0 0 0 3 3 10 6 3 3 0 3 0 0 3 3 3 3 3 3 3 3 3 3 3 3 3 3 3 3 3 3 3 3 0 0
0 0 0 0 0 0 0 0 0 0 0 0 0 0 3 0 0 0 3 3 0 0 0 0 0 0 0 3 3 3 3 3 3 3 3 3 3 3 3 3 3 3 0 0 0 3 3 0 0
0 0 0 0 0 0 0 0 0 0 0 0 0 0 0 0 0 0 3 3 0 0 0 0 0 0 0 0 0 3 3 3 3 3 3 3 3 3 3 3 3 0 0 0 0 0 0 0 0
0 0 0 0 0 0 0 0 0 0 0 0 0 0 0 0 0 0 0 3 0 0 0 0 0 0 0 0 0 0 0 0 3 3 3 3 3 3 3 3 3 0 0 0 0 0 0 0 0
0 0 0 0 0 0 0 0 0 0 0 0 0 0 0 0 0 0 0 3 3 0 0 0 0 0 0 0 0 0 0 0 0 3 3 3 3 3 3 3 3 0 0 0 0 0 0 0 0
0 0 0 0 0 0 0 0 0 0 0 0 0 0 0 0 0 0 3 3 3 3 0 0 0 0 0 0 0 0 0 0 0 0 0 0 3 3 3 3 3 0 0 0 0 0 0 0 0
0 0 0 0 0 0 0 0 0 0 0 0 0 0 0 0 0 0 3 6 6 3 3 0 0 0 0 0 0 0 0 0 0 0 0 0 0 0 3 0 0 0 0 0 0 0 0 0 0
0 0 0 0 0 0 0 0 0 0 0 0 0 0 0 0 0 0 0 6 6 6 3 3 0 0 0 0 0 0 0 0 0 0 0 0 0 0 0 0 0 3 0 0 0 0 0 0 0
0 0 0 0 0 0 0 0 0 0 0 0 0 0 0 0 0 0 0 0 3 6 3 3 6 0 0 0 0 0 0 0 0 0 0 0 0 0 0 0 0 3 0 0 0 0 0 0 0
0 0 0 0 0 0 0 0 0 0 0 0 0 0 0 0 0 0 0 0 3 6 6 3 6 3 0 0 0 0 0 0 0 0 0 0 0 0 0 0 0 0 0 0 0 0 0 0 0
0 0 0 0 0 0 0 0 0 0 0 0 0 0 0 0 0 0 0 0 0 6 3 3 3 6 0 0 0 0 0 0 0 0 0 0 0 0 0 0 0 0 0 0 0 0 0 0 0
0 0 0 0 0 0 0 0 0 0 0 0 0 0 0 0 0 0 0 0 3 6 3 3 3 6 0 0 0 0 0 0 0 0 0 0 0 0 0 0 0 0 0 0 0 0 0 0 0
0 0 0 0 0 0 0 0 0 0 0 0 0 0 0 0 0 0 0 0 3 0 3 3 6 6 3 0 0 0 0 0 0 0 0 0 0 0 0 0 0 0 0 0 0 0 0 0 0
0 0 0 0 0 0 0 0 0 0 0 0 0 0 0 0 0 0 0 0 0 0 3 3 3 6 3 3 0 0 0 0 0 0 0 0 0 0 0 0 0 0 0 0 0 0 0 0 0
0 0 0 0 0 0 0 0 0 0 0 0 0 0 0 0 0 0 0 0 0 0 3 3 3 6 6 3 3 0 0 0 0 0 0 0 0 0 0 0 0 0 0 0 0 0 0 0 0
0 0 0 0 0 0 0 0 0 0 0 0 0 0 0 0 0 0 0 0 0 0 0 3 3 3 6 6 3 3 0 0 0 0 0 0 0 0 0 0 0 0 0 0 0 0 0 0 0
0 0 0 0 0 0 0 0 0 0 0 0 0 0 0 0 0 0 0 0 0 0 0 3 3 3 3 6 3 3 3 0 0 0 0 0 0 0 0 0 0 0 0 0 0 0 0 0 0
0 0 0 0 0 0 0 0 0 0 0 0 0 0 0 0 0 0 0 0 0 0 0 3 3 3 3 3 3 3 3 3 0 0 0 0 0 0 0 0 0 0 0 0 0 0 0 0 0
Height
5879 5881 5882 5883 5884 5884 5883 5884 5883 5882 5883 5883 5883 5883 5883 5883 5883 5885 5882 5880 5880 5879 5879 5879 5879 5879 5879 5879 5879 5878 5878 5878 5877 5877 5876 5876 5875 5875 5874 5874 5873 5873 5873 5873 5872 5872 5872 5871 5872
5879 5881 5883 5883 5883 5883 5884 5883 5882 5883 5883 5883 5882 5883 5882 5882 5882 5881 5880 5879 5879 5878 5878 5878 5878 5878 5878 5878 5878 5878 5877 5877 5876 5876 5875 5875 5874 5874 5873 5872 5872 5872 5871 5871 5871 5870 5870 5870 5870
5879 5881 5883 5883 5882 5883 5883 5882 5882 5882 5882 5882 5882 5882 5882 5882 5881 5880 5879 5878 5877 5876 5877 5877 5878 5878 5878 5877 5877 5877 5876 5876 5875 5875 5874 5874 5873 5872 5871 5871 5870 5870 5869 5869 5868 5868 5868 5868 5868
5880 5881 5882 5882 5881 5882 5882 5882 5882 5882 5882 5882 5882 5882 5881 5881 5880 5880 5878 5878 5877 5876 5876 5876 5877 5877 5877 5876 5876 5876 5875 5875 5874 5874 5873 5872 5872 5871 5869 5869 5868 5868 5867 5867 5866 5866 5866 5866 5865
5879 5880 5881 5881 5881 5881 5881 5881 5881 5881 5881 5881 5881 5881 5881 5881 5879 5879 5878 5877 5876 5876 5876 5876 5876 5876 5876 5875 5875 5874 5874 5873 5873 5872 5871 5871 5870 5869 5868 5867 5867 5866 5865 5864 5864 5864 5863 5863 5863
5879 5879 5880 5880 5880 5880 5880 5880 5880 5880 5880 5880 5880 5880 5879 5879 5878 5877 5877 5876 5876 5875 5875 5875 5875 5874 5874 5874 5873 5873 5872 5871 5871 5870 5869 5869 5868 5867 5866 5865 5864 5863 5862 5861 5861 5861 5861 5861 5860
5878 5878 5878 5879 5879 5879 5879 5879 5878 5879 5879 5879 5879 5878 5878 5878 5877 5876 5876 5875 5875 5874 5874 5874 5874 5873 5873 5872 5872 5871 5871 5870 5869 5868 5867 5866 5866 5865 5864 5863 5862 5861 5859 5858 5858 5858 5858 5858 5857
5876 5877 5877 5877 5878 5878 5878 5877 5877 5877 5877 5877 5877 5877 5876 5876 5876 5875 5875 5874 5873 5873 5873 5872 5872 5872 5871 5871 5870 5869 5868 5868 5867 5866 5865 5864 5863 5862 5861 5860 5859 5857 5856 5855 5855 5855 5855 5855 5854
5875 5876 5875 5876 5876 5877 5876 5876 5876 5876 5875 5875 5875 5875 5875 5874 5874 5874 5873 5873 5872 5872 5871 5871 5871 5870 5870 5869 5868 5867 5866 5865 5864 5864 5863 5862 5861 5860 5859 5857 5856 5854 5852 5851 5851 5851 5852 5852 5851
5873 5874 5874 5875 5875 5875 5875 5874 5874 5874 5873 5873 5873 5872 5872 5872 5872 5872 5871 5871 5870 5870 5869 5869 5869 5868 5867 5867 5866 5865 5864 5863 5862 5861 5860 5859 5858 5857 5856 5855 5853 5851 5849 5846 5846 5847 5848 5848 5848
5872 5873 5873 5873 5873 5872 5872 5872 5872 5871 5872 5871 5871 5870 5870 5870 5870 5870 5869 5869 5869 5868 5868 5867 5866 5866 5865 5864 5863 5862 5861 5860 5859 5858 5857 5856 5855 5854 5853 5852 5851 5849 5846 5844 5844 5844 5845 5845 5845
5871 5871 5871 5870 5870 5870 5870 5870 5870 5870 5870 5869 5869 5868 5868 5867 5867 5867 5867 5867 5867 5866 5866 5865 5864 5863 5862 5862 5861 5860 5858 5858 5857 5855 5854 5853 5852 5851 5850 5849 5848 5846 5844 5842 5842 5842 5843 5843 5842
5869 5869 5869 5868 5868 5868 5868 5868 5868 5867 5867 5866 5866 5866 5865 5865 5865 5865 5865 5864 5864 5864 5863 5862 5862 5861 5860 5859 5857 5856 5855 5854 5854 5852 5851 5850 5849 5848 5847 5846 5845 5843 5842 5841 5840 5840 5840 5840 5840
5867 5867 5867 5867 5867 5866 5866 5866 5866 5865 5864 5864 5864 5863 5863 5863 5862 5862 5862 5862 5862 5861 5860 5860 5859 5858 5857 5856 5854 5853 5852 5851 5850 5849 5848 5847 5846 5845 5844 5843 5842 5840 5839 5838 5838 5837 5837 5837 5836
5865 5865 5866 5865 5865 5864 5864 5863 5863 5863 5862 5861 5861 5861 5860 5860 5860 5860 5859 5859 5859 5858 5858 5857 5856 5855 5854 5853 5852 5850 5849 5848 5847 5846 5845 5843 5842 5841 5840 5839 5838 5837 5836 5835 5835 5834 5834 5833 5832
5863 5864 5863 5863 5862 5862 5863 5861 5861 5860 5860 5859 5859 5858 5858 5857 5857 5857 5856 5856 5855 5855 5854 5853 5853 5852 5850 5849 5848 5847 5846 5845 5843 5842 5841 5840 5838 5837 5836 5835 5835 5833 5832 5832 5831 5830 5830 5829 5829
5861 5861 5861 5861 5860 5859 5859 5859 5858 5857 5857 5856 5856 5855 5855 5854 5854 5853 5853 5853 5852 5851 5851 5850 5849 5848 5847 5846 5845 5844 5842 5841 5840 5838 5837 5836 5834 5833 5832 5831 5831 5830 5829 5828 5827 5827 5826 5826 5825
5859 5858 5858 5858 5857 5857 5856 5856 5855 5854 5854 5853 5852 5852 5852 5851 5851 5850 5849 5849 5848 5848 5847 5846 5845 5845 5844 5843 5841 5840 5839 5837 5836 5834 5833 5832 5830 5829 5828 5827 5826 5826 5825 5824 5823 5823 5822 5822 5822
5856 5855 5855 5854 5854 5853 5853 5852 5852 5851 5850 5850 5849 5849 5848 5848 5847 5846 5846 5845 5845 5844 5843 5842 5841 5841 5840 5839 5837 5836 5835 5833 5832 5831 5829 5828 5827 5826 5824 5823 5822 5821 5821 5820 5819 5819 5818 5818 5818
5852 5852 5851 5851 5850 5850 5849 5849 5848 5848 5847 5847 5846 5845 5845 5844 5843 5842 5842 5841 5841 5840 5839 5838 5837 5836 5835 5834 5833 5831 5830 5829 5828 5827 5825 5824 5823 5821 5820 5819 5818 5817 5817 5816 5815 5814 5814 5813 5813
5849 5849 5848 5848 5847 5846 5846 5846 5845 5844 5843 5843 5842 5841 5841 5840 5839 5838 5838 5837 5836 5835 5835 5833 5832 5831 5830 5829 5828 5827 5825 5824 5823 5822 5821 5820 5818 5817 5816 5815 5814 5813 5812 5811 5810 5810 5809 5809 5808
5846 5846 5845 5844 5843 5843 5842 5841 5842 5840 5839 5839 5838 5837 5836 5835 5834 5833 5833 5832 5831 5830 5830 5829 5827 5826 5825 5824 5823 5822 5820 5819 5818 5817 5816 5815 5813 5812 5811 5810 5809 5808 5807 5807 5806 5805 5804 5804 5803
5843 5842 5841 5840 5839 5839 5838 5836 5838 5836 5835 5834 5834 5833 5832 5831 5829 5828 5827 5827 5826 5825 5824 5823 5822 5821 5820 5818 5817 5816 5815 5814 5813 5811 5811 5810 5808 5807 5806 5805 5804 5803 5802 5801 5801 5800 5799 5798 5798
5839 5839 5838 5836 5835 5835 5834 5832 5832 5832 5831 5830 5828 5827 5827 5825 5824 5823 5822 5821 5820 5819 5818 5817 5816 5815 5814 5813 5811 5811 5810 5808 5807 5806 5805 5804 5803 5802 5801 5800 5799 5798 5797 5796 5795 5794 5794 5793 5792
5835 5835 5834 5832 5831 5831 5829 5827 5828 5827 5826 5824 5823 5822 5821 5819 5818 5817 5816 5815 5814 5813 5812 5811 5810 5809 5808 5806 5805 5804 5803 5802 5801 5800 5799 5798 5797 5796 5795 5794 5793 5792 5792 5791 5790 5789 5788 5788 5787
5831 5831 5830 5828 5827 5826 5825 5823 5824 5822 5820 5818 5817 5816 5814 5813 5812 5811 5809 5808 5807 5806 5805 5804 5803 5802 5801 5799 5798 5797 5796 5795 5794 5793 5792 5791 5790 5790 5789 5788 5787 5786 5785 5785 5784 5783 5782 5782 5781
5827 5826 5825 5824 5822 5820 5819 5819 5818 5816 5814 5812 5811 5810 5808 5807 5805 5804 5803 5802 5801 5799 5798 5797 5796 5795 5793 5792 5791 5790 5788 5787 5786 5786 5785 5784 5783 5782 5782 5781 5780 5779 5778 5778 5777 5776 5776 5775 5775
5822 5821 5820 5818 5816 5815 5814 5814 5813 5811 5809 5807 5805 5804 5802 5801 5799 5798 5797 5795 5794 5793 5792 5790 5789 5788 5787 5785 5783 5782 5780 5779 5778 5778 5777 5776 5775 5774 5774 5773 5773 5772 5771 5770 5770 5769 5769 5768 5768
5818 5817 5815 5813 5812 5810 5808 5811 5808 5805 5803 5801 5799 5797 5795 5794 5793 5791 5790 5789 5787 5786 5785 5784 5782 5781 5780 5778 5776 5774 5773 5771 5770 5769 5769 5768 5767 5766 5766 5765 5765 5764 5764 5763 5762 5762 5761 5761 5762
5812 5811 5810 5809 5807 5805 5803 5806 5802 5799 5797 5794 5792 5790 5789 5787 5786 5784 5783 5782 5780 5779 5778 5777 5776 5774 5772 5771 5769 5767 5765 5763 5762 5761 5760 5760 5759 5759 5758 5757 5757 5756 5756 5755 5754 5754 5754 5754 5754
Wind_Speed
5 4 4 3 2 2 1 2 2 2 2 2 1 1 1 2 2 3 2 2 2 2 2 2 2 1 1 2 2 2 3 3 4 4 5 5 5 6 6 6 7 7 8 8 9 9 9 9 9
5 4 4 3 3 2 2 1 1 2 2 1 1 1 1 2 3 3 3 4 4 4 3 3 3 3 3 3 3 4 4 4 5 5 5 6 6 7 8 7 8 8 9 9 9 10 10 10 11
5 4 4 4 4 4 2 1 1 1 1 0 1 2 2 3 4 4 4 5 5 4 4 4 4 5 5 5 5 5 5 6 6 6 6 6 7 8 8 9 9 9 9 9 10 11 10 11 12
5 5 5 6 6 4 3 2 2 1 1 2 2 3 3 3 4 5 5 5 5 4 5 5 5 6 6 6 7 7 7 7 7 7 8 8 9 9 9 9 9 10 10 10 10 11 11 11 12
6 6 6 6 6 5 4 3 3 3 3 3 4 4 4 4 5 6 6 6 5 5 6 6 6 7 7 8 8 9 9 9 9 9 9 9 9 10 10 10 11 11 11 11 11 12 12 12 12
7 7 6 6 6 6 5 4 4 4 4 5 5 5 5 5 5 6 6 6 6 6 6 6 6 7 7 8 9 9 9 9 10 10 10 10 10 10 11 12 11 12 12 13 12 12 13 12 13
7 7 7 7 6 6 6 6 5 6 6 6 6 7 6 6 6 6 6 7 7 6 7 7 8 8 8 9 9 9 10 9 10 10 11 11 11 11 11 12 12 12 13 13 13 13 13 13 14
7 8 8 8 7 6 6 6 6 6 6 7 8 8 8 7 7 7 7 7 7 7 7 8 9 9 10 10 10 10 11 10 10 11 11 12 12 12 12 12 13 13 13 13 14 14 15 15 15
8 8 8 8 7 7 7 7 7 7 8 8 9 9 9 8 7 8 7 7 8 8 8 8 9 10 10 10 10 11 11 11 12 12 12 13 13 13 13 13 13 14 14 14 14 14 14 15 15
7 7 7 8 8 8 8 9 9 8 8 8 9 9 9 8 8 8 8 8 8 8 8 9 9 10 10 11 11 12 12 12 13 13 14 14 14 14 14 14 13 13 13 13 13 13 14 14 15
7 7 8 8 8 8 9 9 9 8 8 9 9 10 10 9 9 9 8 7 8 8 8 9 10 10 11 11 12 12 13 13 13 14 14 15 14 14 14 14 13 12 12 12 12 12 13 13 13
9 9 9 9 9 9 9 10 10 9 9 10 10 9 9 10 9 9 9 9 9 9 9 9 10 10 11 12 12 12 13 13 13 13 14 15 15 15 15 14 14 13 13 13 13 12 13 13 13
8 8 8 9 9 9 10 10 9 9 9 9 9 9 9 10 10 9 9 9 9 10 10 10 10 11 12 12 13 13 13 13 14 14 14 14 14 15 15 15 15 14 14 13 14 14 14 14 14
8 8 9 9 8 9 9 9 9 9 10 10 10 9 9 9 10 10 10 10 10 10 11 11 12 12 12 13 13 13 13 14 14 14 15 14 14 14 15 16 15 15 15 14 14 14 14 14 15
9 9 9 9 8 9 10 9 9 8 9 10 10 10 10 10 11 11 11 11 11 11 12 12 12 12 13 13 14 14 14 14 15 15 15 15 15 15 15 14 15 15 14 14 14 14 14 14 14
9 9 9 9 10 10 10 10 9 9 9 9 10 11 11 11 11 11 11 12 12 13 13 13 14 14 14 14 14 14 14 15 15 16 16 16 15 15 15 15 15 14 14 14 14 14 14 14 14
9 9 9 10 10 10 11 10 10 10 10 11 11 12 12 12 13 13 13 13 13 13 14 14 14 14 14 15 15 15 15 16 16 16 16 16 16 16 16 15 14 15 14 14 14 14 13 13 13
9 10 10 10 10 10 11 10 9 10 11 11 12 13 13 13 13 14 14 14 15 15 15 15 15 14 14 15 15 16 16 17 17 17 16 16 16 16 16 15 15 15 15 14 14 14 13 13 13
11 11 11 11 11 11 11 11 10 11 11 12 13 13 13 14 14 14 14 15 15 15 16 16 16 15 15 15 16 16 17 17 17 17 17 17 16 16 16 16 16 16 15 14 15 15 15 15 14
11 12 12 13 13 13 12 12 12 12 12 13 13 14 14 15 15 15 15 15 15 15 15 16 17 17 17 17 17 18 18 17 17 17 17 17 17 17 17 17 16 16 16 15 15 16 16 16 16
12 12 13 13 14 14 14 13 13 13 13 13 14 14 15 16 16 16 16 16 16 16 16 17 17 18 18 18 19 19 19 18 18 18 18 19 19 18 17 17 17 16 16 16 17 17 17 17 17
12 13 14 14 15 14 14 15 14 14 14 14 15 15 16 17 17 18 18 18 18 17 18 18 18 19 20 20 20 20 20 19 19 19 19 19 19 20 19 18 18 17 17 17 18 18 18 18 19
13 14 14 15 15 15 14 16 14 14 15 16 16 16 16 17 18 18 19 19 19 19 19 19 19 20 20 20 20 20 20 20 20 21 20 20 20 20 20 19 18 18 18 18 18 18 19 19 19
14 14 15 16 16 16 15 17 16 15 16 17 17 17 17 18 18 18 19 19 19 20 20 20 20 21 21 21 20 21 20 21 21 21 20 20 21 21 20 20 20 19 19 19 19 19 19 19 19
14 14 15 16 17 16 16 17 17 16 17 18 18 19 19 19 19 19 19 19 20 20 21 21 22 22 22 22 21 22 22 22 22 21 21 22 22 21 21 21 21 21 21 20 20 20 19 20 20
14 15 17 18 18 17 17 17 17 17 18 18 19 19 20 19 20 20 20 21 22 22 22 22 22 23 23 23 23 23 23 24 24 23 24 23 23 22 22 22 22 22 22 22 21 21 21 21 20
15 16 17 19 19 19 18 18 16 16 17 19 19 20 20 21 21 21 21 22 22 22 22 22 23 23 23 23 24 24 24 25 25 25 25 25 24 24 24 24 24 23 23 23 23 22 22 22 22
16 16 17 19 20 20 20 19 18 18 19 19 20 21 21 22 22 22 22 23 22 22 22 21 22 22 23 24 24 24 25 26 26 26 26 26 25 25 25 25 25 25 25 25 25 24 24 23 23
17 18 18 19 20 21 22 21 20 20 20 21 21 22 22 23 23 23 23 23 23 22 22 22 22 22 23 23 23 24 25 25 26 26 26 26 26 26 26 26 26 26 26 26 26 26 25 24 24
19 20 20 21 22 23 24 22 21 21 21 22 22 23 24 24 24 23 24 24 24 24 24 24 23 23 23 24 25 24 24 25 25 26 26 26 27 27 28 27 27 27 27 27 27 26 26 25 25
Wind_Direction
194 185 183 171 167 184 179 144 121 101 106 108 93 71 28 360 350 345 338 329 308 316 304 300 297 304 300 308 298 286 290 300 309 303 292 285 282 280 278 271 267 265 262 263 264 267 267 264 261
194 193 196 195 211 227 239 198 195 138 126 109 63 354 330 316 325 333 323 312 294 285 279 286 286 281 280 286 289 292 292 297 303 299 292 287 285 280 274 272 272 269 263 262 265 268 269 267 264
205 208 212 215 227 244 252 223 216 144 148 269 294 305 307 303 305 309 308 305 302 283 272 276 284 286 284 287 284 284 290 296 298 293 289 291 287 286 278 274 271 270 267 265 265 268 274 271 268
214 220 227 232 236 243 253 255 246 262 269 284 289 299 295 296 297 301 301 300 298 289 277 276 281 285 285 285 286 289 290 292 296 294 292 290 288 292 289 282 276 272 269 271 271 272 273 274 271
226 229 236 238 242 250 263 270 261 265 280 284 293 299 298 295 293 295 295 295 291 285 277 278 282 286 289 284 284 287 287 288 290 291 291 292 292 291 290 285 281 276 274 271 270 272 273 274 273
236 239 238 242 252 261 272 277 277 280 279 286 292 293 299 301 294 292 293 291 287 279 277 276 280 289 291 287 287 289 288 288 288 290 291 294 295 294 293 290 284 281 278 274 274 274 272 273 274
238 244 246 249 259 270 279 285 282 276 280 287 292 293 296 297 290 286 287 287 279 275 279 279 282 289 294 292 291 290 290 290 292 292 293 294 294 294 294 292 287 286 283 278 277 277 275 278 278
241 248 255 258 260 270 282 283 289 285 290 291 294 294 294 292 289 284 281 282 282 277 279 281 283 288 291 290 293 294 294 291 292 293 292 293 294 295 292 289 291 290 287 281 278 277 276 279 281
243 249 255 260 267 273 283 285 292 290 295 295 296 294 292 289 286 283 279 280 283 283 283 283 286 289 290 289 292 293 294 293 292 291 291 293 294 294 292 291 295 294 291 285 278 275 275 276 280
243 249 256 265 272 279 280 281 287 287 291 291 293 292 290 286 283 282 280 280 283 283 283 284 288 289 290 289 289 290 291 291 291 291 291 292 293 294 293 292 295 295 294 290 280 276 277 278 280
248 249 261 269 276 280 282 280 282 284 288 289 289 290 288 284 280 277 278 279 278 279 280 281 283 286 288 289 290 290 290 289 290 290 290 291 294 296 294 291 293 294 294 293 285 279 279 279 282
252 255 264 271 276 280 283 283 281 283 288 286 287 285 282 282 282 277 279 278 278 279 282 283 282 284 287 289 289 289 289 289 290 290 289 290 291 293 292 292 292 292 291 288 283 279 278 279 281
259 262 269 277 282 284 284 283 282 286 285 284 285 286 282 284 283 282 281 281 283 283 285 286 287 289 289 289 289 292 293 292 293 292 290 289 289 289 289 290 290 290 288 287 283 280 281 283 284
261 265 269 274 281 283 286 288 289 290 288 287 290 290 288 286 283 280 280 280 283 286 288 288 289 290 290 292 293 293 293 293 294 294 293 293 291 290 290 287 288 287 286 285 286 284 282 282 282
262 264 267 270 278 281 284 288 289 289 289 286 289 292 290 289 286 280 281 283 284 286 288 287 288 291 292 293 293 294 295 295 294 294 294 294 294 293 292 291 290 289 286 286 287 284 280 279 279
262 264 269 275 279 282 284 289 289 287 286 287 290 293 291 289 287 285 284 284 286 288 289 288 289 290 291 293 294 295 296 295 294 294 293 293 293 293 294 292 290 291 289 285 284 285 282 280 279
263 268 274 278 281 283 285 289 288 286 288 289 289 291 289 287 285 285 285 287 287 288 290 289 289 291 291 292 294 295 295 294 294 293 292 291 292 293 294 292 289 290 289 286 283 281 279 280 279
269 274 275 277 277 280 283 283 282 286 290 293 290 290 287 283 282 283 284 287 288 289 290 290 289 290 291 293 294 295 295 293 292 293 294 294 295 296 294 293 291 289 287 285 286 283 278 278 278
267 272 274 278 279 280 281 281 283 287 290 291 288 287 287 286 285 284 285 286 287 289 289 290 290 290 291 292 293 293 293 292 292 292 294 294 294 296 295 293 292 289 288 285 284 281 280 280 278
271 275 275 275 276 278 279 283 288 291 291 289 288 289 290 290 288 286 285 284 286 288 288 289 290 290 290 290 290 290 289 289 290 291 291 292 294 295 293 291 290 289 288 285 284 282 282 281 278
275 275 275 275 276 276 278 279 284 289 289 290 290 290 290 291 290 289 287 285 286 287 288 289 290 290 289 288 288 288 288 287 288 288 289 290 290 291 289 289 290 289 287 285 282 283 283 281 279
273 275 276 279 279 279 279 277 278 285 286 290 291 290 290 291 290 290 289 287 287 288 289 288 287 288 288 287 287 286 285 286 287 288 289 287 287 288 288 287 288 287 286 284 281 281 280 280 278
273 276 279 282 281 281 283 281 280 284 287 289 291 289 287 288 290 289 288 287 286 286 287 287 286 286 285 285 286 285 284 285 286 286 286 287 285 284 284 284 284 285 284 284 284 281 280 279 276
275 276 279 280 281 282 284 283 287 288 289 291 293 292 291 290 291 290 288 287 287 287 286 285 285 286 286 285 283 284 285 285 285 285 285 285 285 284 283 282 281 282 283 283 285 283 281 280 277
277 276 277 278 280 283 283 284 289 290 290 291 291 292 292 292 291 290 288 287 286 286 285 284 284 285 285 284 281 283 282 282 283 283 283 284 284 283 282 281 280 281 281 282 281 281 280 281 279
280 277 279 281 282 283 282 285 291 290 290 290 291 291 291 291 290 288 286 286 286 286 285 285 285 284 284 284 282 281 281 281 281 281 282 282 282 282 281 280 280 281 280 279 278 277 278 279 277
277 279 279 282 282 284 286 289 291 291 290 289 289 289 288 288 287 286 285 286 286 285 285 286 286 285 286 286 284 281 280 281 281 282 282 281 281 280 280 279 281 280 278 278 276 274 274 275 274
275 279 280 283 285 286 288 290 294 294 291 289 287 285 284 284 284 284 284 285 285 285 286 286 287 287 287 287 285 281 280 280 280 280 281 281 281 280 280 280 280 279 277 277 276 275 274 274 272
272 275 280 282 283 286 288 289 294 294 294 290 287 285 284 283 281 282 284 284 284 283 284 283 284 287 289 288 287 285 283 281 280 279 280 280 279 279 279 280 280 279 277 275 276 274 272 270 270
273 275 278 278 281 283 286 289 290 290 289 289 286 284 283 284 283 281 283 284 284 283 282 281 282 285 287 288 287 286 284 282 281 280 279 279 279 279 279 279 279 279 277 275 274 273 271 267 267